ASTROSAT

Last updated on Sun Jun 21 2026 00:03:39 GMT+0000 (Coordinated Universal Time)

1 40930U 15052A 26171.05152111 .00001334 00000+0 80735-4 0 9999 2 40930 5.9956 134.7258 0007591 74.7193 285.3774 14.82511277580259
UTC large
Height (km)
Speed (km/s)
/
Latitude / Longitude
Inclination (degrees)
Orbital Period (minutes)
Azimuth
Elevation
Range (km)
Doppler Factor

Next 0 passes for location: London (51.5072 / 0.1276)

No passes found over London.
ASTROSAT